• In Uzbekistan
  • List of Countries
  • For 7 days
  • Water Temperature
  • Satellite Maps
  • Weather Map
  • Weather Widgets
  • user-avatar
    Login

    Hourly Weather Sankt Polten

    Today, 28 April, Friday

    Time Temperature Precipitation Wind Pressure Humidity
    00:00 +5°C° 0.5 mm 2 mps 731 mmHg 97%
    01:00 +4°C° 0.5 mm 2 mps 730 mmHg 97%
    02:00 +4°C° 0.7 mm 2 mps 730 mmHg 97%
    03:00 +4°C° 0.7 mm 2 mps 729 mmHg 98%
    04:00 +4°C° 0.7 mm 2 mps 729 mmHg 98%
    05:00 +4°C° 0.4 mm 2 mps 728 mmHg 97%
    06:00 +5°C° 0.4 mm 2 mps 728 mmHg 97%
    07:00 +5°C° 0.4 mm 2 mps 728 mmHg 97%
    08:00 +5°C° 0.4 mm 2 mps 728 mmHg 96%
    09:00 +6°C° 0.4 mm 2 mps 728 mmHg 95%
    10:00 +6°C° 0.4 mm 2 mps 728 mmHg 95%
    11:00 +6°C° 0.2 mm 2 mps 728 mmHg 94%
    12:00 +6°C° 0.2 mm 2 mps 729 mmHg 93%
    13:00 +7°C° 0.2 mm 2 mps 729 mmHg 93%
    14:00 +7°C° 0.2 mm 2 mps 729 mmHg 92%
    15:00 +7°C° 0.2 mm 2 mps 729 mmHg 92%
    16:00 +7°C° 0.2 mm 3 mps 729 mmHg 92%
    17:00 +5°C° 0.6 mm 3 mps 730 mmHg 93%
    18:00 +5°C° 0.6 mm 3 mps 731 mmHg 94%
    19:00 +4°C° 0.6 mm 3 mps 731 mmHg 95%
    20:00 +4°C° 0.2 mm 3 mps 732 mmHg 95%
    21:00 +4°C° 0.2 mm 4 mps 733 mmHg 96%
    22:00 +4°C° 0.2 mm 4 mps 733 mmHg 96%
    23:00 +4°C° 0 mm 3 mps 734 mmHg 96%

    Tomorrow, 29 April, Saturday

    Time Temperature Precipitation Wind Pressure Humidity
    00:00 +3°C° 0 mm 3 mps 734 mmHg 96%
    01:00 +3°C° 0 mm 3 mps 735 mmHg 96%
    02:00 +3°C° 0 mm 3 mps 735 mmHg 96%
    03:00 +3°C° 0 mm 3 mps 735 mmHg 96%
    04:00 +2°C° 0 mm 3 mps 736 mmHg 96%
    05:00 +3°C° 0 mm 3 mps 736 mmHg 94%
    06:00 +4°C° 0 mm 3 mps 736 mmHg 93%
    07:00 +4°C° 0 mm 3 mps 737 mmHg 91%
    08:00 +5°C° 0 mm 3 mps 737 mmHg 86%
    09:00 +6°C° 0 mm 4 mps 737 mmHg 80%
    10:00 +8°C° 0 mm 4 mps 737 mmHg 75%
    11:00 +8°C° 0.1 mm 4 mps 737 mmHg 72%
    12:00 +10°C° 0.1 mm 3 mps 737 mmHg 68%
    13:00 +11°C° 0.1 mm 3 mps 736 mmHg 64%
    14:00 +11°C° 0.1 mm 3 mps 736 mmHg 64%
    15:00 +11°C° 0.1 mm 3 mps 736 mmHg 64%
    16:00 +11°C° 0.1 mm 3 mps 736 mmHg 64%
    17:00 +10°C° 0 mm 2 mps 736 mmHg 73%
    18:00 +8°C° 0 mm 2 mps 736 mmHg 81%
    19:00 +7°C° 0 mm 1 mps 736 mmHg 89%
    20:00 +6°C° 0 mm 1 mps 736 mmHg 91%
    21:00 +5°C° 0 mm 1 mps 737 mmHg 92%
    22:00 +4°C° 0 mm 1 mps 737 mmHg 93%
    23:00 +4°C° 0 mm 1 mps 737 mmHg 93%

    Day after tomorrow, 30 April, Sunday

    Time Temperature Precipitation Wind Pressure Humidity
    00:00 +4°C° 0 mm 1 mps 737 mmHg 93%
    01:00 +3°C° 0 mm 1 mps 737 mmHg 93%
    02:00 +3°C° 0 mm 1 mps 737 mmHg 93%
    03:00 +2°C° 0 mm 1 mps 737 mmHg 93%
    04:00 +2°C° 0 mm 1 mps 737 mmHg 93%
    05:00 +4°C° 0 mm 1 mps 737 mmHg 88%
    06:00 +6°C° 0 mm 1 mps 737 mmHg 83%
    07:00 +9°C° 0 mm 1 mps 737 mmHg 78%
    08:00 +9°C° 0 mm 2 mps 737 mmHg 72%
    09:00 +12°C° 0 mm 2 mps 736 mmHg 67%
    10:00 +12°C° 0 mm 3 mps 736 mmHg 61%
    11:00 +13°C° 0 mm 3 mps 736 mmHg 59%
    12:00 +14°C° 0 mm 3 mps 735 mmHg 57%
    13:00 +16°C° 0 mm 3 mps 735 mmHg 55%
    14:00 +16°C° 0 mm 3 mps 734 mmHg 56%
    15:00 +15°C° 0 mm 4 mps 734 mmHg 57%
    16:00 +15°C° 0 mm 4 mps 733 mmHg 58%
    17:00 +13°C° 0 mm 3 mps 733 mmHg 67%
    18:00 +11°C° 0 mm 3 mps 733 mmHg 75%
    19:00 +9°C° 0 mm 3 mps 733 mmHg 83%
    20:00 +8°C° 0 mm 3 mps 733 mmHg 86%
    21:00 +7°C° 0 mm 3 mps 733 mmHg 89%
    22:00 +7°C° 0 mm 2 mps 734 mmHg 92%
    23:00 +6°C° 0 mm 2 mps 733 mmHg 93%

    1 May, Monday

    Time Temperature Precipitation Wind Pressure Humidity
    00:00 +6°C° 0 mm 2 mps 733 mmHg 93%
    01:00 +5°C° 0 mm 2 mps 733 mmHg 94%
    02:00 +5°C° 0 mm 2 mps 732 mmHg 95%
    03:00 +5°C° 0 mm 2 mps 732 mmHg 95%
    04:00 +5°C° 0 mm 2 mps 732 mmHg 95%
    05:00 +6°C° 0 mm 2 mps 732 mmHg 91%
    06:00 +8°C° 0 mm 3 mps 732 mmHg 87%
    07:00 +9°C° 0 mm 3 mps 731 mmHg 82%
    08:00 +11°C° 0 mm 3 mps 731 mmHg 76%
    09:00 +12°C° 0 mm 4 mps 731 mmHg 71%
    10:00 +14°C° 0 mm 4 mps 731 mmHg 65%
    11:00 +14°C° 0 mm 4 mps 731 mmHg 64%
    12:00 +16°C° 0 mm 3 mps 731 mmHg 62%
    13:00 +17°C° 0 mm 3 mps 731 mmHg 61%
    14:00 +17°C° 0.1 mm 3 mps 731 mmHg 62%
    15:00 +17°C° 0.1 mm 3 mps 731 mmHg 63%
    16:00 +17°C° 0.1 mm 3 mps 731 mmHg 64%
    17:00 +14°C° 0.2 mm 3 mps 731 mmHg 74%
    18:00 +11°C° 0.2 mm 3 mps 732 mmHg 84%
    19:00 +9°C° 0.2 mm 3 mps 732 mmHg 93%
    20:00 +9°C° 0.2 mm 3 mps 732 mmHg 94%
    21:00 +8°C° 0.2 mm 3 mps 733 mmHg 94%
    22:00 +7°C° 0.2 mm 3 mps 733 mmHg 94%
    23:00 +7°C° 0.5 mm 2 mps 733 mmHg 95%

    2 May, Tuesday

    Time Temperature Precipitation Wind Pressure Humidity
    00:00 +7°C° 0.5 mm 2 mps 733 mmHg 95%
    01:00 +7°C° 0.5 mm 2 mps 733 mmHg 96%
    02:00 +6°C° 1 mm 2 mps 733 mmHg 96%
    03:00 +7°C° 1 mm 1 mps 733 mmHg 96%
    04:00 +7°C° 1 mm 1 mps 733 mmHg 97%
    05:00 +7°C° 1.2 mm 1 mps 733 mmHg 96%
    06:00 +7°C° 1.2 mm 1 mps 733 mmHg 96%
    07:00 +8°C° 1.2 mm 1 mps 733 mmHg 95%
    08:00 +8°C° 1.4 mm 1 mps 733 mmHg 95%
    09:00 +8°C° 1.4 mm 1 mps 733 mmHg 94%
    10:00 +8°C° 1.4 mm 1 mps 733 mmHg 93%
    11:00 +8°C° 1.3 mm 2 mps 733 mmHg 93%
    12:00 +8°C° 1.3 mm 2 mps 733 mmHg 94%
    13:00 +8°C° 1.3 mm 2 mps 733 mmHg 94%
    14:00 +9°C° 0.5 mm 2 mps 733 mmHg 92%
    15:00 +9°C° 0.5 mm 2 mps 733 mmHg 89%
    16:00 +10°C° 0.5 mm 2 mps 733 mmHg 87%
    17:00 +9°C° 0 mm 2 mps 733 mmHg 89%
    18:00 +8°C° 0 mm 2 mps 733 mmHg 92%
    19:00 +8°C° 0 mm 2 mps 734 mmHg 94%
    20:00 +7°C° 0 mm 2 mps 734 mmHg 94%
    21:00 +7°C° 0 mm 2 mps 734 mmHg 95%
    22:00 +6°C° 0 mm 2 mps 735 mmHg 95%
    23:00 +6°C° 0 mm 2 mps 735 mmHg 95%

    3 May, Wednesday

    Time Temperature Precipitation Wind Pressure Humidity
    00:00 +6°C° 0 mm 1 mps 735 mmHg 96%
    01:00 +6°C° 0 mm 1 mps 735 mmHg 96%
    02:00 +5°C° 0 mm 1 mps 735 mmHg 96%
    03:00 +5°C° 0 mm 1 mps 735 mmHg 95%
    04:00 +5°C° 0 mm 1 mps 734 mmHg 95%
    05:00 +6°C° 0 mm 1 mps 735 mmHg 92%
    06:00 +8°C° 0 mm 1 mps 735 mmHg 88%
    07:00 +9°C° 0 mm 0 mps 735 mmHg 84%
    08:00 +10°C° 0 mm 0 mps 735 mmHg 80%
    09:00 +12°C° 0 mm 1 mps 735 mmHg 75%
    10:00 +13°C° 0 mm 1 mps 735 mmHg 71%
    11:00 +14°C° 0.2 mm 1 mps 734 mmHg 71%
    12:00 +14°C° 0.2 mm 1 mps 734 mmHg 72%
    13:00 +14°C° 0.2 mm 1 mps 734 mmHg 73%
    14:00 +14°C° 0.3 mm 1 mps 733 mmHg 75%
    15:00 +14°C° 0.3 mm 1 mps 733 mmHg 76%
    16:00 +14°C° 0.3 mm 1 mps 733 mmHg 78%
    17:00 +12°C° 0.1 mm 1 mps 733 mmHg 84%
    18:00 +9°C° 0.1 mm 0 mps 733 mmHg 89%
    19:00 +7°C° 0.1 mm 0 mps 732 mmHg 95%
    20:00 +6°C° 0 mm 0 mps 733 mmHg 95%
    21:00 +5°C° 0 mm 0 mps 733 mmHg 96%
    22:00 +5°C° 0 mm 1 mps 733 mmHg 96%
    23:00 +5°C° 0 mm 1 mps 733 mmHg 96%
    Show more